| time (UTC) | temp C | wind direction | speed KPH | gust KPH | rain 1hr cm | rain 24hr cm | rain mn cm | humidity % | barometer mb |
| 20260510153506 | 14 | 58 | 17.7 | 30.6 | 0.00 | 0.00 | 0.00 | 63 | 1013.3 |
| 20260510152505 | 15 | 44 | 19.3 | 35.4 | 0.00 | 0.00 | 0.00 | 61 | 1013.4 |
| 20260510151505 | 15 | 44 | 17.7 | 30.6 | 0.00 | 0.00 | 0.00 | 61 | 1013.4 |
| 20260510150505 | 16 | 40 | 17.7 | 29.0 | 0.00 | 0.00 | 0.00 | 59 | 1013.6 |
| 20260510150005 | 16 | 30 | 14.5 | 27.4 | 0.00 | 0.00 | 0.00 | 59 | 1013.7 |
| 20260510145505 | 16 | 34 | 14.5 | 33.8 | 0.00 | 0.00 | 0.00 | 58 | 1013.7 |
| 20260510144505 | 16 | 43 | 14.5 | 40.2 | 0.00 | 0.00 | 0.00 | 61 | 1013.8 |
| 20260510144005 | 15 | 50 | 14.5 | 35.4 | 0.00 | 0.00 | 0.00 | 62 | 1013.9 |
| 20260510143505 | 15 | 61 | 17.7 | 33.8 | 0.00 | 0.00 | 0.00 | 62 | 1013.8 |
| 20260510143005 | 15 | 50 | 17.7 | 33.8 | 0.00 | 0.00 | 0.00 | 62 | 1014.0 |
| 20260510142505 | 15 | 43 | 17.7 | 33.8 | 0.00 | 0.00 | 0.00 | 63 | 1014.0 |
| 20260510142005 | 15 | 48 | 17.7 | 33.8 | 0.00 | 0.00 | 0.00 | 63 | 1014.2 |
| 20260510141505 | 15 | 46 | 12.9 | 27.4 | 0.00 | 0.00 | 0.00 | 63 | 1014.2 |
| 20260510141005 | 15 | 50 | 12.9 | 24.1 | 0.00 | 0.00 | 0.00 | 63 | 1014.2 |
| 20260510140505 | 15 | 55 | 12.9 | 24.1 | 0.00 | 0.00 | 0.00 | 63 | 1014.3 |
| 20260510140005 | 15 | 55 | 12.9 | 29.0 | 0.00 | 0.00 | 0.00 | 63 | 1014.3 |
| 20260510135005 | 15 | 58 | 17.7 | 30.6 | 0.00 | 0.00 | 0.00 | 61 | 1014.4 |
| 20260510134505 | 15 | 51 | 14.5 | 29.0 | 0.00 | 0.00 | 0.00 | 62 | 1014.3 |
| 20260510134005 | 15 | 49 | 14.5 | 35.4 | 0.00 | 0.00 | 0.00 | 62 | 1014.3 |
| 20260510133005 | 15 | 54 | 14.5 | 30.6 | 0.00 | 0.00 | 0.00 | 61 | 1014.3 |
| 20260510132505 | 15 | 52 | 14.5 | 30.6 | 0.00 | 0.00 | 0.00 | 62 | 1014.3 |
| 20260510132005 | 15 | 45 | 12.9 | 25.7 | 0.00 | 0.00 | 0.00 | 61 | 1014.3 |
| 20260510131505 | 15 | 55 | 14.5 | 30.6 | 0.00 | 0.00 | 0.00 | 62 | 1014.3 |
| 20260510131005 | 15 | 55 | 17.7 | 30.6 | 0.00 | 0.00 | 0.00 | 61 | 1014.4 |
| 20260510130506 | 15 | 49 | 14.5 | 30.6 | 0.00 | 0.00 | 0.00 | 60 | 1014.5 |
| 20260510130005 | 15 | 48 | 14.5 | 29.0 | 0.00 | 0.00 | 0.00 | 60 | 1014.5 |
| 20260510125505 | 15 | 50 | 14.5 | 30.6 | 0.00 | 0.00 | 0.00 | 60 | 1014.5 |
| 20260510124505 | 15 | 52 | 17.7 | 33.8 | 0.00 | 0.00 | 0.00 | 59 | 1014.7 |
| 20260510124005 | 16 | 47 | 17.7 | 29.0 | 0.00 | 0.00 | 0.00 | 59 | 1014.7 |
| 20260510123505 | 16 | 53 | 17.7 | 35.4 | 0.00 | 0.00 | 0.00 | 58 | 1014.7 |
| 20260510123005 | 16 | 56 | 17.7 | 35.4 | 0.00 | 0.00 | 0.00 | 58 | 1014.6 |
| 20260510122505 | 16 | 49 | 14.5 | 29.0 | 0.00 | 0.00 | 0.00 | 58 | 1014.6 |
| 20260510122005 | 16 | 43 | 17.7 | 29.0 | 0.00 | 0.00 | 0.00 | 58 | 1014.6 |
| 20260510121505 | 16 | 54 | 14.5 | 33.8 | 0.00 | 0.00 | 0.00 | 59 | 1014.7 |
| 20260510120005 | 16 | 39 | 17.7 | 35.4 | 0.00 | 0.00 | 0.00 | 58 | 1014.7 |
| 20260510115505 | 16 | 51 | 14.5 | 35.4 | 0.00 | 0.00 | 0.00 | 57 | 1014.8 |
| 20260510115005 | 16 | 60 | 17.7 | 30.6 | 0.00 | 0.00 | 0.00 | 58 | 1014.8 |
| 20260510114505 | 16 | 60 | 19.3 | 37.0 | 0.00 | 0.00 | 0.00 | 57 | 1014.8 |
| 20260510114005 | 16 | 51 | 17.7 | 37.0 | 0.00 | 0.00 | 0.00 | 56 | 1014.8 |
| 20260510113505 | 17 | 49 | 14.5 | 30.6 | 0.00 | 0.00 | 0.00 | 54 | 1014.9 |
| 20260510113005 | 16 | 55 | 14.5 | 30.6 | 0.00 | 0.00 | 0.00 | 56 | 1014.8 |
| 20260510112005 | 16 | 71 | 17.7 | 33.8 | 0.00 | 0.00 | 0.00 | 56 | 1015.0 |
| 20260510111505 | 16 | 60 | 17.7 | 43.5 | 0.00 | 0.00 | 0.00 | 58 | 1015.2 |
| 20260510111005 | 16 | 62 | 17.7 | 43.5 | 0.00 | 0.00 | 0.00 | 57 | 1015.2 |
| 20260510110505 | 16 | 65 | 17.7 | 33.8 | 0.00 | 0.00 | 0.00 | 59 | 1015.3 |
| 20260510110005 | 15 | 49 | 17.7 | 30.6 | 0.00 | 0.00 | 0.00 | 60 | 1015.3 |
| 20260510105505 | 15 | 45 | 14.5 | 29.0 | 0.00 | 0.00 | 0.00 | 60 | 1015.4 |
| 20260510104505 | 15 | 61 | 14.5 | 33.8 | 0.00 | 0.00 | 0.00 | 62 | 1015.3 |
| 20260510104005 | 15 | 70 | 17.7 | 33.8 | 0.00 | 0.00 | 0.00 | 61 | 1015.5 |
| 20260510103505 | 15 | 71 | 17.7 | 33.8 | 0.00 | 0.00 | 0.00 | 61 | 1015.5 |
| 20260510103007 | 15 | 66 | 17.7 | 35.4 | 0.00 | 0.00 | 0.00 | 60 | 1015.6 |
| 20260510102505 | 15 | 69 | 19.3 | 37.0 | 0.00 | 0.00 | 0.00 | 62 | 1015.6 |
| 20260510102005 | 14 | 68 | 19.3 | 37.0 | 0.00 | 0.00 | 0.00 | 62 | 1015.7 |
| 20260510101005 | 14 | 59 | 17.7 | 33.8 | 0.00 | 0.00 | 0.00 | 63 | 1015.8 |
| 20260510100505 | 13 | 57 | 17.7 | 35.4 | 0.00 | 0.00 | 0.00 | 65 | 1015.8 |
| 20260510100005 | 13 | 58 | 19.3 | 38.6 | 0.00 | 0.00 | 0.00 | 67 | 1015.9 |
| 20260510095505 | 13 | 55 | 17.7 | 38.6 | 0.00 | 0.00 | 0.00 | 66 | 1015.8 |
| 20260510095005 | 13 | 53 | 11.3 | 25.7 | 0.00 | 0.00 | 0.00 | 67 | 1015.8 |
| 20260510094505 | 13 | 56 | 12.9 | 30.6 | 0.00 | 0.00 | 0.00 | 69 | 1015.8 |
| 20260510093505 | 13 | 50 | 17.7 | 37.0 | 0.00 | 0.00 | 0.00 | 67 | 1015.9 |
| 20260510093005 | 13 | 46 | 14.5 | 30.6 | 0.00 | 0.00 | 0.00 | 68 | 1015.9 |
| 20260510092505 | 12 | 40 | 17.7 | 29.0 | 0.00 | 0.00 | 0.00 | 68 | 1015.9 |
| 20260510092005 | 12 | 50 | 19.3 | 40.2 | 0.00 | 0.00 | 0.00 | 67 | 1015.8 |
| 20260510091007 | 12 | 55 | 17.7 | 43.5 | 0.00 | 0.00 | 0.00 | 69 | 1016.0 |
| 20260510090505 | 12 | 50 | 14.5 | 43.5 | 0.00 | 0.00 | 0.00 | 71 | 1016.0 |
| 20260510090005 | 12 | 40 | 14.5 | 35.4 | 0.00 | 0.00 | 0.00 | 70 | 1015.9 |
| 20260510085505 | 12 | 43 | 17.7 | 37.0 | 0.00 | 0.00 | 0.00 | 70 | 1016.1 |
| 20260510085005 | 12 | 40 | 14.5 | 37.0 | 0.00 | 0.00 | 0.00 | 70 | 1016.1 |
| 20260510084505 | 12 | 47 | 12.9 | 29.0 | 0.00 | 0.00 | 0.00 | 70 | 1016.2 |
| 20260510084005 | 12 | 48 | 14.5 | 29.0 | 0.00 | 0.00 | 0.00 | 71 | 1016.2 |
| 20260510083505 | 12 | 38 | 14.5 | 33.8 | 0.00 | 0.00 | 0.00 | 70 | 1016.1 |
| 20260510083005 | 12 | 46 | 12.9 | 33.8 | 0.00 | 0.00 | 0.00 | 71 | 1016.1 |
| 20260510082504 | 12 | 48 | 12.9 | 33.8 | 0.00 | 0.00 | 0.00 | 73 | 1016.2 |
| 20260510082005 | 12 | 38 | 14.5 | 27.4 | 0.00 | 0.00 | 0.00 | 74 | 1016.3 |
| 20260510081505 | 12 | 41 | 12.9 | 27.4 | 0.00 | 0.00 | 0.00 | 74 | 1016.2 |
| 20260510081005 | 12 | 45 | 12.9 | 29.0 | 0.00 | 0.00 | 0.00 | 76 | 1016.2 |
| 20260510080505 | 11 | 39 | 12.9 | 29.0 | 0.00 | 0.00 | 0.00 | 77 | 1016.3 |
| 20260510080005 | 11 | 42 | 12.9 | 25.7 | 0.00 | 0.00 | 0.00 | 77 | 1016.3 |
| 20260510075505 | 11 | 48 | 12.9 | 29.0 | 0.00 | 0.00 | 0.00 | 78 | 1016.2 |
| 20260510075005 | 11 | 46 | 14.5 | 33.8 | 0.00 | 0.00 | 0.00 | 78 | 1016.4 |
| 20260510074505 | 11 | 52 | 14.5 | 33.8 | 0.00 | 0.00 | 0.00 | 77 | 1016.4 |
| 20260510074005 | 11 | 55 | 12.9 | 27.4 | 0.00 | 0.00 | 0.00 | 78 | 1016.2 |
| 20260510073505 | 11 | 55 | 11.3 | 30.6 | 0.00 | 0.00 | 0.00 | 79 | 1016.2 |
| 20260510073005 | 11 | 54 | 12.9 | 30.6 | 0.00 | 0.00 | 0.00 | 78 | 1016.3 |
| 20260510072505 | 11 | 49 | 14.5 | 29.0 | 0.00 | 0.00 | 0.00 | 77 | 1016.3 |
| 20260510070505 | 10 | 48 | 11.3 | 25.7 | 0.00 | 0.00 | 0.00 | 80 | 1016.1 |
| 20260510070005 | 10 | 53 | 11.3 | 24.1 | 0.00 | 0.00 | 0.00 | 81 | 1016.1 |
| 20260510065005 | 10 | 51 | 12.9 | 24.1 | 0.00 | 0.00 | 0.00 | 83 | 1016.1 |
| 20260510064505 | 10 | 50 | 11.3 | 22.5 | 0.00 | 0.00 | 0.00 | 83 | 1016.2 |
| 20260510064005 | 9 | 48 | 9.7 | 20.9 | 0.00 | 0.00 | 0.00 | 84 | 1016.1 |
| 20260510063504 | 9 | 47 | 9.7 | 20.9 | 0.00 | 0.00 | 0.00 | 85 | 1016.1 |
| 20260510063005 | 9 | 36 | 8.0 | 16.1 | 0.00 | 0.00 | 0.00 | 86 | 1016.1 |
| 20260510062505 | 9 | 32 | 8.0 | 22.5 | 0.00 | 0.00 | 0.00 | 86 | 1016.1 |
| 20260510061505 | 8 | 34 | 8.0 | 16.1 | 0.00 | 0.00 | 0.00 | 87 | 1016.0 |
| 20260510061005 | 8 | 31 | 8.0 | 14.5 | 0.00 | 0.00 | 0.00 | 87 | 1015.9 |
| 20260510060505 | 8 | 32 | 6.4 | 12.9 | 0.00 | 0.00 | 0.00 | 87 | 1015.9 |
| 20260510060005 | 8 | 30 | 6.4 | 11.3 | 0.00 | 0.00 | 0.00 | 87 | 1015.9 |
| 20260510055505 | 8 | 31 | 6.4 | 12.9 | 0.00 | 0.00 | 0.00 | 87 | 1015.9 |
| 20260510055005 | 8 | 34 | 6.4 | 12.9 | 0.00 | 0.00 | 0.00 | 87 | 1015.9 |
| 20260510054505 | 8 | 32 | 6.4 | 14.5 | 0.00 | 0.00 | 0.00 | 87 | 1015.9 |
| 20260510054005 | 8 | 29 | 8.0 | 14.5 | 0.00 | 0.00 | 0.00 | 87 | 1015.9 |
| 20260510053505 | 8 | 32 | 6.4 | 11.3 | 0.00 | 0.00 | 0.00 | 87 | 1015.9 |
| 20260510053005 | 8 | 32 | 6.4 | 12.9 | 0.00 | 0.00 | 0.00 | 87 | 1015.9 |
| 20260510052505 | 8 | 25 | 8.0 | 14.5 | 0.00 | 0.00 | 0.00 | 87 | 1016.0 |
| 20260510052005 | 8 | 22 | 8.0 | 14.5 | 0.00 | 0.00 | 0.00 | 87 | 1015.9 |
| 20260510051505 | 8 | 23 | 6.4 | 12.9 | 0.00 | 0.00 | 0.00 | 87 | 1016.0 |
| 20260510051005 | 8 | 26 | 6.4 | 16.1 | 0.00 | 0.00 | 0.00 | 87 | 1016.1 |
| 20260510050505 | 8 | 33 | 6.4 | 16.1 | 0.00 | 0.00 | 0.00 | 86 | 1016.1 |
| 20260510045505 | 8 | 32 | 8.0 | 16.1 | 0.00 | 0.00 | 0.00 | 86 | 1016.1 |
| 20260510045005 | 8 | 34 | 8.0 | 16.1 | 0.00 | 0.00 | 0.00 | 86 | 1016.1 |
| 20260510044505 | 8 | 32 | 8.0 | 16.1 | 0.00 | 0.00 | 0.00 | 86 | 1016.0 |
| 20260510044005 | 8 | 30 | 8.0 | 16.1 | 0.00 | 0.00 | 0.00 | 85 | 1016.0 |
| 20260510043505 | 8 | 26 | 8.0 | 16.1 | 0.00 | 0.00 | 0.00 | 85 | 1015.9 |
| 20260510043005 | 8 | 38 | 8.0 | 17.7 | 0.00 | 0.00 | 0.00 | 85 | 1016.0 |
| 20260510042505 | 8 | 49 | 8.0 | 17.7 | 0.00 | 0.00 | 0.00 | 84 | 1016.0 |
| 20260510042005 | 8 | 43 | 8.0 | 20.9 | 0.00 | 0.00 | 0.00 | 84 | 1016.0 |
| 20260510041505 | 9 | 38 | 8.0 | 20.9 | 0.00 | 0.00 | 0.00 | 84 | 1016.0 |
| 20260510041005 | 9 | 34 | 6.4 | 16.1 | 0.00 | 0.00 | 0.00 | 83 | 1016.0 |
| 20260510040505 | 9 | 35 | 8.0 | 16.1 | 0.00 | 0.00 | 0.00 | 83 | 1016.1 |
| 20260510040005 | 9 | 33 | 8.0 | 16.1 | 0.00 | 0.00 | 0.00 | 83 | 1016.1 |
| 20260510035505 | 9 | 21 | 9.7 | 17.7 | 0.00 | 0.00 | 0.00 | 83 | 1016.1 |
| 20260510035005 | 9 | 22 | 9.7 | 17.7 | 0.00 | 0.00 | 0.00 | 83 | 1016.1 |
| 20260510034505 | 9 | 32 | 8.0 | 16.1 | 0.00 | 0.00 | 0.00 | 83 | 1016.0 |
| 20260510034005 | 10 | 34 | 8.0 | 16.1 | 0.00 | 0.00 | 0.00 | 83 | 1016.1 |
| 20260510033505 | 10 | 32 | 8.0 | 17.7 | 0.00 | 0.00 | 0.00 | 82 | 1016.1 |
| 20260510033005 | 10 | 35 | 8.0 | 17.7 | 0.00 | 0.00 | 0.00 | 82 | 1016.1 |
| 20260510032505 | 10 | 32 | 8.0 | 16.1 | 0.00 | 0.00 | 0.00 | 81 | 1016.2 |
| 20260510032005 | 10 | 23 | 8.0 | 16.1 | 0.00 | 0.00 | 0.00 | 81 | 1016.2 |
| 20260510031505 | 10 | 33 | 8.0 | 24.1 | 0.00 | 0.00 | 0.00 | 81 | 1016.3 |
| 20260510031005 | 10 | 40 | 9.7 | 24.1 | 0.00 | 0.00 | 0.00 | 80 | 1016.3 |
| 20260510030505 | 10 | 34 | 9.7 | 22.5 | 0.00 | 0.00 | 0.00 | 80 | 1016.3 |
| 20260510025005 | 10 | 34 | 8.0 | 14.5 | 0.00 | 0.00 | 0.00 | 76 | 1016.1 |
| 20260510024505 | 10 | 36 | 8.0 | 14.5 | 0.00 | 0.00 | 0.00 | 75 | 1016.2 |
| 20260510024005 | 10 | 35 | 8.0 | 17.7 | 0.00 | 0.00 | 0.00 | 74 | 1016.2 |
| 20260510023005 | 11 | 30 | 9.7 | 17.7 | 0.00 | 0.00 | 0.00 | 72 | 1016.1 |
| 20260510022505 | 11 | 33 | 9.7 | 22.5 | 0.00 | 0.00 | 0.00 | 71 | 1016.1 |
| 20260510022005 | 11 | 32 | 9.7 | 22.5 | 0.00 | 0.00 | 0.00 | 70 | 1016.0 |
| 20260510021505 | 11 | 26 | 9.7 | 24.1 | 0.00 | 0.00 | 0.00 | 69 | 1016.0 |
| 20260510021005 | 11 | 31 | 9.7 | 24.1 | 0.00 | 0.00 | 0.00 | 68 | 1016.0 |
| 20260510020505 | 11 | 39 | 8.0 | 17.7 | 0.00 | 0.00 | 0.00 | 67 | 1015.9 |
| 20260510020005 | 11 | 50 | 9.7 | 22.5 | 0.00 | 0.00 | 0.00 | 66 | 1015.9 |
| 20260510015505 | 11 | 51 | 9.7 | 22.5 | 0.00 | 0.00 | 0.00 | 65 | 1016.0 |
| 20260510015005 | 11 | 45 | 9.7 | 20.9 | 0.00 | 0.00 | 0.00 | 65 | 1016.0 |
| 20260510014005 | 11 | 33 | 8.0 | 20.9 | 0.00 | 0.00 | 0.00 | 64 | 1016.0 |
| 20260510013505 | 12 | 31 | 8.0 | 16.1 | 0.00 | 0.00 | 0.00 | 64 | 1015.9 |
| 20260510013005 | 12 | 30 | 8.0 | 14.5 | 0.00 | 0.00 | 0.00 | 64 | 1015.9 |
| 20260510012507 | 12 | 34 | 8.0 | 20.9 | 0.00 | 0.00 | 0.00 | 63 | 1015.9 |
| 20260510011505 | 12 | 44 | 8.0 | 16.1 | 0.00 | 0.00 | 0.00 | 63 | 1016.0 |
| 20260510011005 | 12 | 39 | 6.4 | 16.1 | 0.00 | 0.00 | 0.00 | 62 | 1016.0 |
| 20260510010505 | 12 | 34 | 6.4 | 12.9 | 0.00 | 0.00 | 0.00 | 62 | 1016.0 |
| 20260510010005 | 12 | 39 | 6.4 | 11.3 | 0.00 | 0.00 | 0.00 | 62 | 1016.0 |
| 20260510005505 | 12 | 42 | 6.4 | 16.1 | 0.00 | 0.00 | 0.00 | 62 | 1016.1 |
| 20260510004505 | 12 | 25 | 3.2 | 11.3 | 0.00 | 0.00 | 0.00 | 61 | 1016.0 |
| 20260510003505 | 12 | 17 | 6.4 | 11.3 | 0.00 | 0.00 | 0.00 | 60 | 1016.0 |
| 20260510003005 | 12 | 15 | 3.2 | 11.3 | 0.00 | 0.00 | 0.00 | 60 | 1016.0 |
| 20260510002505 | 12 | 6 | 3.2 | 8.0 | 0.00 | 0.00 | 0.00 | 59 | 1016.1 |
| 20260510002005 | 12 | 4 | 3.2 | 9.7 | 0.00 | 0.00 | 0.00 | 59 | 1016.2 |
| 20260510001005 | 12 | 23 | 3.2 | 9.7 | 0.00 | 0.00 | 0.00 | 57 | 1016.1 |
| 20260510000505 | 12 | 19 | 3.2 | 9.7 | 0.00 | 0.00 | 0.00 | 57 | 1016.1 |
| 20260510000005 | 13 | 27 | 6.4 | 11.3 | 0.00 | 0.00 | 0.00 | 56 | 1016.0 |
| 20260509235505 | 13 | 39 | 6.4 | 14.5 | 0.00 | 0.00 | 0.00 | 56 | 1016.0 |
| 20260509235005 | 13 | 50 | 6.4 | 14.5 | 0.00 | 0.00 | 0.00 | 56 | 1016.0 |
| 20260509234505 | 13 | 40 | 6.4 | 14.5 | 0.00 | 0.00 | 0.00 | 55 | 1016.0 |
| 20260509234005 | 13 | 27 | 6.4 | 12.9 | 0.00 | 0.00 | 0.00 | 55 | 1016.0 |
| 20260509233506 | 13 | 30 | 6.4 | 12.9 | 0.00 | 0.00 | 0.00 | 55 | 1015.9 |
| 20260509233010 | 13 | 26 | 6.4 | 12.9 | 0.00 | 0.00 | 0.00 | 55 | 1015.8 |
| 20260509232505 | 13 | 28 | 6.4 | 14.5 | 0.00 | 0.00 | 0.00 | 55 | 1015.8 |
| 20260509231005 | 13 | 41 | 6.4 | 12.9 | 0.00 | 0.00 | 0.00 | 53 | 1015.8 |
| 20260509230505 | 13 | 37 | 8.0 | 17.7 | 0.00 | 0.00 | 0.00 | 53 | 1015.7 |
| 20260509230007 | 13 | 50 | 9.7 | 20.9 | 0.00 | 0.00 | 0.00 | 52 | 1015.8 |
| 20260509225005 | 13 | 46 | 8.0 | 20.9 | 0.00 | 0.00 | 0.00 | 53 | 1015.8 |
| 20260509224504 | 13 | 45 | 6.4 | 20.9 | 0.00 | 0.00 | 0.00 | 53 | 1015.7 |
| 20260509224005 | 13 | 50 | 6.4 | 11.3 | 0.00 | 0.00 | 0.00 | 54 | 1015.7 |
| 20260509223505 | 13 | 51 | 6.4 | 12.9 | 0.00 | 0.00 | 0.00 | 54 | 1015.8 |
| 20260509222505 | 14 | 49 | 6.4 | 12.9 | 0.00 | 0.00 | 0.00 | 56 | 1015.6 |
| 20260509222006 | 14 | 50 | 3.2 | 12.9 | 0.00 | 0.00 | 0.00 | 57 | 1015.6 |
| 20260509221505 | 14 | 55 | 6.4 | 12.9 | 0.00 | 0.00 | 0.00 | 58 | 1015.7 |
| 20260509221005 | 14 | 49 | 6.4 | 12.9 | 0.00 | 0.00 | 0.00 | 59 | 1015.7 |
| 20260509220505 | 14 | 39 | 3.2 | 11.3 | 0.00 | 0.00 | 0.00 | 59 | 1015.6 |
| 20260509220005 | 14 | 28 | 1.6 | 8.0 | 0.00 | 0.00 | 0.00 | 59 | 1015.5 |
| 20260509215505 | 15 | 20 | 3.2 | 8.0 | 0.00 | 0.00 | 0.00 | 58 | 1015.5 |
| 20260509215005 | 15 | 32 | 3.2 | 8.0 | 0.00 | 0.00 | 0.00 | 57 | 1015.6 |
| 20260509214005 | 15 | 58 | 6.4 | 11.3 | 0.00 | 0.00 | 0.00 | 54 | 1015.5 |
| 20260509213504 | 15 | 56 | 6.4 | 16.1 | 0.00 | 0.00 | 0.00 | 54 | 1015.4 |
| 20260509213006 | 15 | 56 | 6.4 | 16.1 | 0.00 | 0.00 | 0.00 | 54 | 1015.3 |
| 20260509212505 | 15 | 63 | 6.4 | 17.7 | 0.00 | 0.00 | 0.00 | 55 | 1015.3 |
| 20260509212005 | 15 | 73 | 8.0 | 17.7 | 0.00 | 0.00 | 0.00 | 54 | 1015.3 |
| 20260509211505 | 15 | 77 | 8.0 | 17.7 | 0.00 | 0.00 | 0.00 | 54 | 1015.4 |
| 20260509211005 | 15 | 76 | 8.0 | 14.5 | 0.00 | 0.00 | 0.00 | 54 | 1015.4 |
| 20260509210505 | 15 | 72 | 6.4 | 14.5 | 0.00 | 0.00 | 0.00 | 54 | 1015.4 |
| 20260509210005 | 15 | 69 | 6.4 | 14.5 | 0.00 | 0.00 | 0.00 | 55 | 1015.3 |
| 20260509205505 | 15 | 72 | 8.0 | 16.1 | 0.00 | 0.00 | 0.00 | 54 | 1015.2 |
| 20260509205005 | 16 | 76 | 8.0 | 16.1 | 0.00 | 0.00 | 0.00 | 54 | 1015.0 |
| 20260509204005 | 16 | 72 | 6.4 | 16.1 | 0.00 | 0.00 | 0.00 | 54 | 1014.9 |
| 20260509203005 | 16 | 70 | 6.4 | 14.5 | 0.00 | 0.00 | 0.00 | 54 | 1014.8 |
| 20260509202505 | 16 | 65 | 6.4 | 14.5 | 0.00 | 0.00 | 0.00 | 54 | 1014.7 |
| 20260509202005 | 16 | 71 | 3.2 | 11.3 | 0.00 | 0.00 | 0.00 | 53 | 1014.7 |
| 20260509201505 | 16 | 72 | 3.2 | 11.3 | 0.00 | 0.00 | 0.00 | 53 | 1014.7 |
| 20260509201005 | 17 | 68 | 3.2 | 9.7 | 0.00 | 0.00 | 0.00 | 53 | 1014.7 |
| 20260509200505 | 17 | 69 | 3.2 | 9.7 | 0.00 | 0.00 | 0.00 | 52 | 1014.7 |
| 20260509200005 | 17 | 71 | 6.4 | 12.9 | 0.00 | 0.00 | 0.00 | 52 | 1014.6 |
| 20260509195505 | 17 | 70 | 3.2 | 12.9 | 0.00 | 0.00 | 0.00 | 51 | 1014.6 |
| 20260509195005 | 17 | 71 | 3.2 | 14.5 | 0.00 | 0.00 | 0.00 | 52 | 1014.5 |
| 20260509194006 | 17 | 66 | 3.2 | 9.7 | 0.00 | 0.00 | 0.00 | 52 | 1014.4 |
| 20260509193505 | 18 | 73 | 3.2 | 11.3 | 0.00 | 0.00 | 0.00 | 52 | 1014.4 |
| 20260509193005 | 18 | 80 | 6.4 | 16.1 | 0.00 | 0.00 | 0.00 | 51 | 1014.4 |
| 20260509192005 | 18 | 60 | 1.6 | 9.7 | 0.00 | 0.00 | 0.00 | 51 | 1014.3 |
| 20260509191505 | 18 | 66 | 1.6 | 4.8 | 0.00 | 0.00 | 0.00 | 51 | 1014.2 |
| 20260509191005 | 18 | 0 | 0.0 | 1.6 | 0.00 | 0.00 | 0.00 | 52 | 1014.2 |
| 20260509190006 | 19 | 0 | 0.0 | 1.6 | 0.00 | 0.00 | 0.00 | 51 | 1014.1 |
| 20260509185505 | 19 | 0 | 0.0 | 1.6 | 0.00 | 0.00 | 0.00 | 51 | 1014.1 |
| 20260509184005 | 19 | 69 | 3.2 | 9.7 | 0.00 | 0.00 | 0.00 | 48 | 1014.2 |
| 20260509183504 | 19 | 57 | 6.4 | 12.9 | 0.00 | 0.00 | 0.00 | 47 | 1014.1 |
| 20260509183005 | 19 | 56 | 6.4 | 14.5 | 0.00 | 0.00 | 0.00 | 47 | 1014.0 |
| 20260509182505 | 20 | 55 | 3.2 | 14.5 | 0.00 | 0.00 | 0.00 | 47 | 1014.0 |
| 20260509182005 | 20 | 51 | 3.2 | 9.7 | 0.00 | 0.00 | 0.00 | 48 | 1014.0 |
| 20260509180505 | 20 | 73 | 3.2 | 12.9 | 0.00 | 0.00 | 0.00 | 47 | 1014.0 |
| 20260509180005 | 20 | 68 | 3.2 | 12.9 | 0.00 | 0.00 | 0.00 | 47 | 1014.0 |
| 20260509175505 | 20 | 62 | 6.4 | 12.9 | 0.00 | 0.00 | 0.00 | 46 | 1014.0 |
| 20260509175005 | 20 | 62 | 3.2 | 9.7 | 0.00 | 0.00 | 0.00 | 46 | 1014.0 |
| 20260509174505 | 20 | 67 | 6.4 | 12.9 | 0.00 | 0.00 | 0.00 | 46 | 1013.9 |
| 20260509174005 | 20 | 72 | 6.4 | 14.5 | 0.00 | 0.00 | 0.00 | 46 | 1013.9 |
| 20260509173505 | 20 | 70 | 3.2 | 14.5 | 0.00 | 0.00 | 0.00 | 46 | 1013.9 |
| 20260509172505 | 20 | 65 | 8.0 | 14.5 | 0.00 | 0.00 | 0.00 | 47 | 1013.8 |
| 20260509172005 | 20 | 65 | 8.0 | 14.5 | 0.00 | 0.00 | 0.00 | 46 | 1013.8 |
| 20260509171505 | 21 | 58 | 8.0 | 14.5 | 0.00 | 0.00 | 0.00 | 46 | 1013.8 |
| 20260509171005 | 21 | 38 | 8.0 | 14.5 | 0.00 | 0.00 | 0.00 | 46 | 1013.8 |
| 20260509170505 | 21 | 34 | 8.0 | 17.7 | 0.00 | 0.00 | 0.00 | 44 | 1013.8 |
| 20260509170005 | 21 | 40 | 9.7 | 17.7 | 0.00 | 0.00 | 0.00 | 45 | 1013.9 |
| 20260509165505 | 21 | 43 | 8.0 | 16.1 | 0.00 | 0.00 | 0.00 | 44 | 1013.9 |
| 20260509165005 | 21 | 47 | 9.7 | 20.9 | 0.00 | 0.00 | 0.00 | 44 | 1014.0 |
| 20260509164505 | 22 | 41 | 9.7 | 20.9 | 0.00 | 0.00 | 0.00 | 42 | 1014.0 |
| 20260509164004 | 22 | 37 | 8.0 | 17.7 | 0.00 | 0.00 | 0.00 | 42 | 1014.0 |
| 20260509163504 | 22 | 49 | 9.7 | 20.9 | 0.00 | 0.00 | 0.00 | 42 | 1014.0 |
| 20260509163005 | 22 | 62 | 9.7 | 20.9 | 0.00 | 0.00 | 0.00 | 42 | 1014.0 |
| 20260509162505 | 22 | 65 | 11.3 | 20.9 | 0.00 | 0.00 | 0.00 | 41 | 1014.0 |
| 20260509162005 | 22 | 60 | 11.3 | 22.5 | 0.00 | 0.00 | 0.00 | 43 | 1014.0 |
| 20260509161505 | 22 | 51 | 9.7 | 22.5 | 0.00 | 0.00 | 0.00 | 43 | 1014.1 |
| 20260509161005 | 22 | 43 | 8.0 | 20.9 | 0.00 | 0.00 | 0.00 | 43 | 1014.1 |
| 20260509160505 | 22 | 45 | 8.0 | 16.1 | 0.00 | 0.00 | 0.00 | 45 | 1014.1 |
| 20260509160005 | 22 | 50 | 8.0 | 20.9 | 0.00 | 0.00 | 0.00 | 46 | 1014.1 |
| 20260509155505 | 21 | 48 | 8.0 | 20.9 | 0.00 | 0.00 | 0.00 | 46 | 1014.1 |
| 20260509155005 | 21 | 71 | 8.0 | 16.1 | 0.00 | 0.00 | 0.00 | 46 | 1014.1 |
| 20260509154505 | 21 | 81 | 8.0 | 14.5 | 0.00 | 0.00 | 0.00 | 48 | 1014.2 |
| 20260509154005 | 20 | 63 | 8.0 | 14.5 | 0.00 | 0.00 | 0.00 | 50 | 1014.2 |